| time (UTC) | temp F | wind direction | speed MPH | gust MPH | rain 1hr in | rain 24hr in | rain mn in | humidity % | barometer mb |
| 20260507203104 | 62 | 116 | 6.0 | 11.0 | 0.00 | 0.94 | 0.94 | 50 | 1005.4 |
| 20260507202204 | 62 | 115 | 3.0 | 11.0 | 0.00 | 0.94 | 0.94 | 49 | 1005.7 |
| 20260507201304 | 63 | 96 | 4.0 | 12.0 | 0.00 | 0.94 | 0.94 | 48 | 1005.6 |
| 20260507200404 | 63 | 136 | 2.0 | 14.0 | 0.00 | 0.94 | 0.94 | 47 | 1005.3 |
| 20260507195504 | 63 | 128 | 7.0 | 14.0 | 0.00 | 0.94 | 0.94 | 47 | 1005.6 |
| 20260507194604 | 63 | 161 | 4.0 | 19.0 | 0.00 | 0.94 | 0.94 | 45 | 1005.6 |
| 20260507193704 | 64 | 144 | 4.0 | 13.0 | 0.00 | 0.94 | 0.94 | 45 | 1005.4 |
| 20260507192804 | 64 | 134 | 8.0 | 13.0 | 0.00 | 0.94 | 0.94 | 44 | 1004.8 |
| 20260507191904 | 65 | 105 | 4.0 | 11.0 | 0.00 | 0.94 | 0.94 | 43 | 1004.5 |
| 20260507191004 | 66 | 106 | 6.0 | 13.0 | 0.00 | 0.94 | 0.94 | 43 | 1003.9 |
| 20260507190104 | 65 | 157 | 3.0 | 16.0 | 0.00 | 0.94 | 0.94 | 42 | 1003.8 |
| 20260507185204 | 66 | 131 | 5.0 | 16.0 | 0.00 | 0.94 | 0.94 | 41 | 1003.7 |
| 20260507184304 | 66 | 110 | 4.0 | 12.0 | 0.00 | 0.94 | 0.94 | 41 | 1003.7 |
| 20260507183404 | 66 | 164 | 3.0 | 11.0 | 0.00 | 0.94 | 0.94 | 43 | 1003.1 |
| 20260507182504 | 64 | 211 | 4.0 | 15.0 | 0.00 | 0.94 | 0.94 | 47 | 1003.7 |
| 20260507181604 | 64 | 154 | 6.0 | 11.0 | 0.00 | 0.94 | 0.94 | 48 | 1004.3 |
| 20260507180704 | 64 | 133 | 2.0 | 11.0 | 0.00 | 0.94 | 0.94 | 50 | 1004.5 |
| 20260507175804 | 61 | 99 | 5.0 | 11.0 | 0.00 | 0.94 | 0.94 | 52 | 1004.4 |
| 20260507174904 | 61 | 163 | 3.0 | 10.0 | 0.00 | 0.94 | 0.94 | 53 | 1004.9 |
| 20260507174004 | 61 | 156 | 4.0 | 8.0 | 0.00 | 0.94 | 0.94 | 54 | 1005.3 |
| 20260507173104 | 61 | 188 | 2.0 | 11.0 | 0.00 | 0.94 | 0.94 | 53 | 1005.5 |
| 20260507172204 | 61 | 210 | 4.0 | 13.0 | 0.00 | 0.94 | 0.94 | 53 | 1006.2 |
| 20260507171304 | 61 | 179 | 4.0 | 11.0 | 0.00 | 0.94 | 0.94 | 53 | 1006.2 |
| 20260507170404 | 61 | 211 | 6.0 | 10.0 | 0.00 | 0.94 | 0.94 | 54 | 1006.6 |
| 20260507165504 | 60 | 142 | 2.0 | 11.0 | 0.00 | 0.94 | 0.94 | 56 | 1006.9 |
| 20260507164604 | 60 | 152 | 2.0 | 12.0 | 0.00 | 0.94 | 0.94 | 56 | 1006.8 |
| 20260507163704 | 60 | 147 | 4.0 | 16.0 | 0.00 | 0.94 | 0.94 | 56 | 1006.4 |
| 20260507162804 | 60 | 161 | 4.0 | 14.0 | 0.00 | 0.94 | 0.94 | 58 | 1006.7 |
| 20260507161903 | 60 | 151 | 2.0 | 11.0 | 0.00 | 0.94 | 0.94 | 58 | 1006.2 |
| 20260507161004 | 60 | 196 | 4.0 | 10.0 | 0.00 | 0.94 | 0.94 | 58 | 1005.6 |
| 20260507160104 | 60 | 176 | 4.0 | 11.0 | 0.00 | 0.94 | 0.94 | 59 | 1005.9 |
| 20260507155204 | 60 | 171 | 2.0 | 12.0 | 0.00 | 0.94 | 0.94 | 60 | 1005.4 |
| 20260507154303 | 60 | 135 | 2.0 | 9.0 | 0.00 | 0.94 | 0.94 | 61 | 1004.8 |
| 20260507153403 | 60 | 135 | 4.0 | 9.0 | 0.00 | 0.94 | 0.94 | 62 | 1005.5 |
| 20260507152504 | 60 | 135 | 3.0 | 8.0 | 0.00 | 0.94 | 0.94 | 63 | 1006.2 |
| 20260507151603 | 60 | 135 | 4.0 | 9.0 | 0.00 | 0.94 | 0.94 | 62 | 1006.9 |
| 20260507150704 | 60 | 132 | 4.0 | 11.0 | 0.00 | 0.94 | 0.94 | 61 | 1007.4 |
| 20260507145803 | 60 | 139 | 4.0 | 10.0 | 0.00 | 0.94 | 0.94 | 61 | 1007.9 |
| 20260507144904 | 60 | 146 | 2.0 | 10.0 | 0.00 | 0.94 | 0.94 | 61 | 1008.0 |
| 20260507144004 | 60 | 159 | 3.0 | 9.0 | 0.00 | 0.94 | 0.94 | 60 | 1007.9 |
| 20260507143103 | 60 | 190 | 3.0 | 9.0 | 0.00 | 0.94 | 0.94 | 60 | 1006.6 |
| 20260507142204 | 60 | 186 | 4.0 | 13.0 | 0.00 | 0.94 | 0.94 | 61 | 1005.8 |
| 20260507141304 | 61 | 173 | 5.0 | 13.0 | 0.00 | 0.94 | 0.94 | 61 | 1006.3 |
| 20260507140403 | 61 | 179 | 2.0 | 8.0 | 0.00 | 0.94 | 0.94 | 61 | 1006.0 |
| 20260507135504 | 61 | 161 | 4.0 | 11.0 | 0.00 | 0.94 | 0.94 | 60 | 1006.1 |
| 20260507134603 | 61 | 108 | 4.0 | 14.0 | 0.00 | 0.94 | 0.94 | 60 | 1005.8 |
| 20260507133704 | 61 | 164 | 4.0 | 14.0 | 0.00 | 0.94 | 0.94 | 61 | 1005.4 |
| 20260507132803 | 62 | 121 | 5.0 | 10.0 | 0.00 | 0.94 | 0.94 | 61 | 1005.3 |
| 20260507131903 | 61 | 151 | 2.0 | 10.0 | 0.00 | 0.94 | 0.94 | 62 | 1005.7 |
| 20260507131003 | 61 | 83 | 5.0 | 11.0 | 0.00 | 0.94 | 0.94 | 64 | 1006.1 |
| 20260507130103 | 61 | 155 | 4.0 | 11.0 | 0.00 | 0.94 | 0.94 | 66 | 1006.3 |
| 20260507125203 | 62 | 182 | 6.0 | 8.0 | 0.00 | 0.94 | 0.94 | 65 | 1006.2 |
| 20260507124304 | 62 | 201 | 2.0 | 8.0 | 0.00 | 0.94 | 0.94 | 64 | 1005.7 |
| 20260507123403 | 62 | 110 | 2.0 | 8.0 | 0.00 | 0.94 | 0.94 | 63 | 1005.7 |
| 20260507122504 | 62 | 150 | 2.0 | 11.0 | 0.00 | 0.94 | 0.94 | 62 | 1005.5 |
| 20260507121603 | 62 | 139 | 4.0 | 11.0 | 0.00 | 0.94 | 0.94 | 63 | 1005.2 |
| 20260507120703 | 62 | 88 | 2.0 | 6.0 | 0.00 | 0.94 | 0.94 | 63 | 1004.6 |
| 20260507115803 | 62 | 111 | 1.0 | 8.0 | 0.00 | 0.94 | 0.94 | 62 | 1004.5 |
| 20260507114904 | 63 | 106 | 1.0 | 8.0 | 0.00 | 0.94 | 0.94 | 62 | 1004.4 |
| 20260507114003 | 63 | 140 | 1.0 | 5.0 | 0.00 | 0.94 | 0.94 | 63 | 1005.4 |
| 20260507113103 | 63 | 91 | 2.0 | 6.0 | 0.00 | 0.94 | 0.94 | 64 | 1004.7 |
| 20260507112203 | 63 | 77 | 3.0 | 8.0 | 0.00 | 0.94 | 0.94 | 63 | 1003.7 |
| 20260507111303 | 64 | 144 | 1.0 | 9.0 | 0.00 | 0.94 | 0.94 | 65 | 1004.5 |
| 20260507110403 | 64 | 146 | 3.0 | 11.0 | 0.00 | 0.94 | 0.94 | 69 | 1003.8 |
| 20260507105503 | 64 | 144 | 4.0 | 17.0 | 0.00 | 0.94 | 0.94 | 71 | 1002.0 |
| 20260507104603 | 64 | 132 | 6.0 | 14.0 | 0.00 | 0.94 | 0.94 | 78 | 1002.0 |
| 20260507103703 | 64 | 135 | 6.0 | 13.0 | 0.00 | 0.94 | 0.94 | 81 | 1001.6 |
| 20260507102803 | 64 | 165 | 7.0 | 12.0 | 0.00 | 0.94 | 0.94 | 86 | 1001.2 |
| 20260507101903 | 65 | 207 | 7.0 | 15.0 | 0.00 | 0.94 | 0.94 | 85 | 1000.4 |
| 20260507101003 | 65 | 153 | 8.0 | 15.0 | 0.00 | 0.94 | 0.94 | 84 | 1001.2 |
| 20260507100103 | 65 | 156 | 5.0 | 15.0 | 0.00 | 0.94 | 0.94 | 84 | 1001.7 |
| 20260507095203 | 65 | 141 | 4.0 | 11.0 | 0.00 | 0.94 | 0.94 | 84 | 1002.7 |
| 20260507094303 | 65 | 158 | 5.0 | 12.0 | 0.00 | 0.94 | 0.94 | 84 | 1002.4 |
| 20260507093403 | 66 | 152 | 4.0 | 13.0 | 0.00 | 0.94 | 0.94 | 84 | 1002.2 |
| 20260507092503 | 66 | 140 | 4.0 | 16.0 | 0.00 | 0.94 | 0.94 | 85 | 1002.2 |
| 20260507091603 | 66 | 139 | 6.0 | 12.0 | 0.00 | 0.94 | 0.94 | 87 | 1002.4 |
| 20260507090703 | 66 | 126 | 2.0 | 8.0 | 0.00 | 0.94 | 0.94 | 88 | 1002.9 |
| 20260507085803 | 66 | 151 | 4.0 | 8.0 | 0.00 | 0.94 | 0.94 | 92 | 1003.2 |
| 20260507084903 | 66 | 179 | 2.0 | 8.0 | 0.00 | 0.94 | 0.94 | 93 | 1003.3 |
| 20260507084003 | 66 | 117 | 4.0 | 8.0 | 0.00 | 0.94 | 0.94 | 94 | 1003.7 |
| 20260507083103 | 67 | 135 | 3.0 | 8.0 | 0.00 | 0.94 | 0.94 | 95 | 1003.2 |
| 20260507082203 | 66 | 148 | 2.0 | 4.0 | 0.00 | 0.94 | 0.94 | 95 | 1003.0 |
| 20260507081303 | 67 | 134 | 1.0 | 8.0 | 0.00 | 0.94 | 0.94 | 96 | 1003.5 |
| 20260507080403 | 66 | 133 | 1.0 | 9.0 | 0.00 | 0.94 | 0.94 | 96 | 1003.1 |
| 20260507075503 | 66 | 126 | 4.0 | 11.0 | 0.00 | 0.94 | 0.94 | 96 | 1002.8 |
| 20260507074603 | 67 | 172 | 2.0 | 8.0 | 0.00 | 0.94 | 0.94 | 96 | 1002.6 |
| 20260507073703 | 67 | 140 | 2.0 | 6.0 | 0.00 | 0.94 | 0.94 | 96 | 1001.8 |
| 20260507072803 | 67 | 111 | 1.0 | 4.0 | 0.00 | 0.94 | 0.94 | 96 | 1002.0 |
| 20260507071903 | 67 | 113 | 1.0 | 4.0 | 0.00 | 0.94 | 0.94 | 96 | 1001.9 |
| 20260507071003 | 67 | 101 | 1.0 | 5.0 | 0.00 | 0.94 | 0.94 | 96 | 1001.7 |
| 20260507065203 | 67 | 136 | 1.0 | 4.0 | 0.00 | 0.94 | 0.94 | 96 | 1001.9 |
| 20260507064303 | 68 | 108 | 2.0 | 4.0 | 0.00 | 0.94 | 0.94 | 96 | 1001.8 |
| 20260507063403 | 68 | 117 | 1.0 | 4.0 | 0.00 | 0.94 | 0.94 | 96 | 1001.6 |
| 20260507062503 | 68 | 117 | 1.0 | 2.0 | 0.01 | 0.96 | 0.94 | 96 | 1001.4 |
| 20260507061603 | 68 | 147 | 0.0 | 2.0 | 0.01 | 0.97 | 0.94 | 96 | 1001.2 |
| 20260507060703 | 68 | 108 | 1.0 | 6.0 | 0.01 | 0.97 | 0.94 | 96 | 1001.5 |
| 20260507055803 | 67 | 142 | 2.0 | 3.0 | 0.01 | 0.97 | 0.94 | 96 | 1001.4 |
| 20260507054903 | 68 | 134 | 0.0 | 2.0 | 0.01 | 0.97 | 0.94 | 96 | 1001.7 |
| 20260507054003 | 67 | 166 | 0.0 | 4.0 | 0.01 | 0.97 | 0.94 | 96 | 1001.6 |
| 20260507053103 | 68 | 154 | 0.0 | 5.0 | 0.00 | 0.96 | 0.93 | 95 | 1001.8 |
| 20260507052203 | 68 | 115 | 0.0 | 2.0 | 0.00 | 0.96 | 0.93 | 95 | 1001.4 |
| 20260507051303 | 68 | 116 | 0.0 | 4.0 | 0.14 | 0.96 | 0.93 | 95 | 1001.6 |
| 20260507050403 | 69 | 151 | 0.0 | 8.0 | 0.46 | 0.96 | 0.93 | 95 | 1001.6 |
| 20260507045503 | 69 | 158 | 4.0 | 10.0 | 0.67 | 0.96 | 0.93 | 95 | 1001.4 |
| 20260507044603 | 70 | 145 | 4.0 | 11.0 | 0.87 | 0.96 | 0.93 | 93 | 1000.8 |
| 20260507043703 | 70 | 165 | 4.0 | 13.0 | 0.93 | 0.96 | 0.93 | 93 | 1001.0 |
| 20260507042803 | 69 | 229 | 2.0 | 11.0 | 0.93 | 0.96 | 0.93 | 93 | 1000.6 |
| 20260507041903 | 69 | 155 | 3.0 | 19.0 | 0.90 | 0.92 | 0.91 | 92 | 1000.6 |
| 20260507041003 | 70 | 169 | 7.0 | 12.0 | 0.59 | 0.61 | 0.63 | 91 | 1001.2 |
| 20260507035203 | 73 | 258 | 4.0 | 9.0 | 0.17 | 0.19 | 0.20 | 88 | 999.6 |
| 20260507034303 | 75 | 346 | 3.0 | 8.0 | 0.02 | 0.05 | 0.04 | 83 | 999.0 |
| 20260507033403 | 76 | 29 | 2.0 | 5.0 | 0.00 | 0.02 | 0.00 | 81 | 999.2 |
| 20260507032503 | 77 | 300 | 2.0 | 7.0 | 0.00 | 0.02 | 0.00 | 78 | 999.1 |
| 20260507031603 | 77 | 322 | 2.0 | 5.0 | 0.00 | 0.02 | 0.00 | 76 | 999.8 |
| 20260507030703 | 77 | 288 | 1.0 | 4.0 | 0.00 | 0.02 | 0.00 | 75 | 999.3 |
| 20260507025803 | 77 | 286 | 0.0 | 4.0 | 0.00 | 0.02 | 0.02 | 75 | 999.9 |
| 20260507024902 | 78 | 29 | 1.0 | 3.0 | 0.00 | 0.02 | 0.02 | 75 | 1000.3 |
| 20260507024002 | 78 | 3 | 1.0 | 4.0 | 0.00 | 0.02 | 0.02 | 75 | 1000.2 |
| 20260507023102 | 78 | 299 | 2.0 | 6.0 | 0.00 | 0.02 | 0.02 | 75 | 1000.9 |
| 20260507022203 | 78 | 359 | 1.0 | 4.0 | 0.00 | 0.02 | 0.02 | 75 | 1000.8 |
| 20260507021302 | 78 | 34 | 1.0 | 6.0 | 0.00 | 0.02 | 0.02 | 75 | 1001.1 |
| 20260507020402 | 78 | 303 | 1.0 | 5.0 | 0.00 | 0.02 | 0.02 | 75 | 1001.1 |
| 20260507015503 | 78 | 351 | 1.0 | 4.0 | 0.00 | 0.02 | 0.02 | 75 | 1001.5 |
| 20260507014602 | 78 | 338 | 1.0 | 5.0 | 0.00 | 0.02 | 0.02 | 75 | 1001.6 |
| 20260507013703 | 78 | 341 | 3.0 | 5.0 | 0.00 | 0.02 | 0.02 | 75 | 1001.7 |
| 20260507012802 | 78 | 34 | 2.0 | 7.0 | 0.00 | 0.02 | 0.02 | 75 | 1001.2 |
| 20260507011902 | 79 | 358 | 1.0 | 7.0 | 0.00 | 0.02 | 0.02 | 74 | 1001.3 |
| 20260507011002 | 79 | 1 | 2.0 | 4.0 | 0.00 | 0.02 | 0.02 | 75 | 1001.4 |
| 20260507005202 | 79 | 345 | 1.0 | 3.0 | 0.00 | 0.02 | 0.02 | 75 | 1002.1 |
| 20260507004303 | 79 | 199 | 1.0 | 4.0 | 0.00 | 0.02 | 0.02 | 73 | 1002.8 |
| 20260507003402 | 79 | 92 | 0.0 | 2.0 | 0.00 | 0.02 | 0.02 | 73 | 1002.4 |
| 20260507002503 | 80 | 281 | 0.0 | 2.0 | 0.00 | 0.02 | 0.02 | 72 | 1002.4 |
| 20260507001602 | 80 | 292 | 1.0 | 2.0 | 0.00 | 0.02 | 0.02 | 72 | 1002.2 |
| 20260507000702 | 80 | 320 | 0.0 | 4.0 | 0.00 | 0.02 | 0.02 | 72 | 1001.9 |
| 20260506235803 | 80 | 333 | 2.0 | 4.0 | 0.00 | 0.02 | 0.02 | 72 | 1001.9 |
| 20260506234902 | 80 | 9 | 0.0 | 5.0 | 0.00 | 0.02 | 0.02 | 72 | 1001.6 |
| 20260506234003 | 80 | 353 | 3.0 | 8.0 | 0.00 | 0.02 | 0.02 | 71 | 1001.4 |
| 20260506233102 | 80 | 258 | 2.0 | 7.0 | 0.00 | 0.02 | 0.02 | 71 | 1001.5 |
| 20260506232202 | 80 | 322 | 1.0 | 6.0 | 0.00 | 0.02 | 0.02 | 71 | 1001.6 |
| 20260506231302 | 80 | 303 | 2.0 | 6.0 | 0.00 | 0.02 | 0.02 | 71 | 1001.5 |
| 20260506230402 | 81 | 328 | 0.0 | 7.0 | 0.00 | 0.02 | 0.02 | 69 | 1001.5 |
| 20260506225502 | 81 | 310 | 3.0 | 9.0 | 0.00 | 0.02 | 0.02 | 69 | 1001.2 |
| 20260506224602 | 81 | 10 | 2.0 | 7.0 | 0.00 | 0.02 | 0.02 | 69 | 1001.3 |
| 20260506223702 | 81 | 63 | 2.0 | 6.0 | 0.00 | 0.02 | 0.02 | 69 | 1001.3 |
| 20260506222802 | 81 | 353 | 1.0 | 4.0 | 0.00 | 0.02 | 0.02 | 68 | 1000.9 |
| 20260506221902 | 81 | 302 | 2.0 | 4.0 | 0.00 | 0.02 | 0.02 | 68 | 1001.2 |
| 20260506221002 | 81 | 291 | 2.0 | 4.0 | 0.00 | 0.02 | 0.02 | 68 | 1000.9 |
| 20260506215202 | 82 | 277 | 1.0 | 4.0 | 0.00 | 0.02 | 0.02 | 66 | 1000.8 |
| 20260506214302 | 83 | 43 | 0.0 | 5.0 | 0.00 | 0.02 | 0.02 | 65 | 1000.6 |
| 20260506213402 | 83 | 350 | 2.0 | 6.0 | 0.00 | 0.02 | 0.02 | 64 | 1000.8 |
| 20260506212502 | 83 | 340 | 3.0 | 6.0 | 0.00 | 0.02 | 0.02 | 64 | 1000.9 |
| 20260506211602 | 84 | 5 | 1.0 | 8.0 | 0.00 | 0.02 | 0.02 | 63 | 1001.2 |
| 20260506210702 | 84 | 325 | 1.0 | 5.0 | 0.00 | 0.02 | 0.02 | 62 | 1001.2 |
| 20260506205802 | 85 | 311 | 2.0 | 4.0 | 0.00 | 0.02 | 0.02 | 62 | 1001.4 |
| 20260506204902 | 85 | 303 | 2.0 | 7.0 | 0.00 | 0.02 | 0.02 | 61 | 1001.7 |
| 20260506204002 | 85 | 16 | 2.0 | 5.0 | 0.00 | 0.02 | 0.02 | 60 | 1002.0 |